METAR Formatted Surface Weather Observation
Issued by NWS

Current Version | Previous Version | Text Only | Print | Product List | Glossary On
Versions: 1 2 3 4 5 6 7 8 9 10 11 12 13 14 15 16 17 18 19 20 21 22 23 24 25 26 27 28 29 30 31 32 33 34 35 36 37 38 39 40 41 42 43 44 45 46 47 48 49 50
907
SAUS43 KUNR 102100 COR
MTR2WX
METAR K2WX 102056Z AUTO 33019G25KT 11/M01 A2991 RMK AO1 PK WND
33026/2032 SLP141 T01061011 51013



USA.gov is the U.S. government's official web portal to all federal, state and local government web resources and services.